Find Starlink 31016

NORAD ID: 58548 Int'l Des: 2023-192 Owner: SPXS Country: US Constellation: starlink operational
LEOCIRCULAR

リアルタイム位置

3D地球を読み込み中...

Starlink 31016について

説明を読み込み中...

次回通過

Passes for default location (London). Set your location on the main map for personalized predictions.

高度履歴

Loading altitude history...

軌道要素

1 58548U 23192T 26126.46208292 -.00000605 00000-0 -83065-5 0 9997
2 58548 53.1592 154.1338 0001147 65.3715 294.7405 15.30186263134837
Epoch: May 6, 2026 • Age: 16 hours

現在のステータス

高度 479.8 km
速度 7.63 km/s
衛星直下点 46.54°N, 5.18°E
打ち上げ日 Dec 8, 2023
運用期間 2.4 years
タイプ internet

技術仕様

分類 Payload
質量 730.00 kg
乾燥質量 700.00 kg
総質量 730.00 kg
長さ 0.30 m
直径 4.10 m
スパン 29.00 m
形状 Box + pan
製造者 SPXS
バスタイプ Starlink V2M
フェーズステータス In Orbit
所有者/国 SPXS/US

Most Searched